カタログに戻る

COSMOS 1867 COOLANT

運用中LEO
NORAD 39665·DEBRIS·🇷🇺 Russia

打ち上げ Jul 10, 1987 から Baikonur Cosmodrome

Loading…

次のパス (今後24時間)

TLE

経年Source: Space-Track

元期: Sep 12, 2026, 15:24 UTC

1 39665U 87060AC  26255.64192244  .00000134  00000-0  83927-4 0  9993
2 39665  65.0050 124.6778 0018303 282.5111  77.3927 14.33853314639825

AllMySatでCOSMOS 1867 COOLANTをリアルタイム追跡

Download on the App Store